Location: Leiter
(44.7178°N, 106.2687°W)
Time: 08:43:32
(UTC+00:00)

DX 1 - Pass Details

Date: 04 July 2022
Orbit: 616 x 630 km, 98.4° (Epoch: 17 August)

Event Time Altitude Azimuth Distance (km) Brightness Sun altitude
Rises 05:42:21 0° 357° (N) 2,931 ? -19.5°
Reaches altitude 10° 05:45:18 10° 335° (NNW) 2,016 ? -19.7°
Maximum altitude 05:47:53 16° 299° (WNW) 1,670 ? -19.9°
Drops below altitude 10° 05:50:27 10° 263° (W) 2,004 ? -20.0°
Sets 05:53:23 0° 241° (WSW) 2,903 ? -20.2°
